K0CPM-2 Weather Reports


Display with metric or nautical units.
time (UTC)temp
F
wind
direction
speed
MPH
gust
MPH
rain 1hr
in
rain 24hr
in
rain mn
in
humidity
%
barometer
mb
20260504204548 79 302 3.0 7.0 0.00 0.00 0.00 38 1012.6
20260504203045 79 5 3.0 7.0 0.00 0.00 0.00 39 1012.8
20260504201546 79 360 4.0 9.0 0.00 0.00 0.00 40 1013.1
20260504200050 80 359 2.0 7.0 0.00 0.00 0.00 38 1013.4
20260504194536 80 273 3.0 9.0 0.00 0.00 0.00 39 1013.6
20260504193033 80 156 3.0 8.0 0.00 0.00 0.00 39 1013.7
20260504191534 80 271 3.0 8.0 0.00 0.00 0.00 43 1013.7
20260504190030 80 46 2.0 7.0 0.00 0.00 0.00 47 1014.0
20260504184534 81 301 1.0 7.0 0.00 0.00 0.00 44 1014.2
20260504183033 80 114 2.0 8.0 0.00 0.00 0.00 44 1014.3
20260504181525 81 359 1.0 7.0 0.00 0.00 0.00 42 1014.4
20260504180025 80 278 2.0 7.0 0.00 0.00 0.00 43 1014.4
20260504174522 79 163 0.0 5.0 0.00 0.00 0.00 41 1014.6
20260504173019 80 205 1.0 5.0 0.00 0.00 0.00 46 1014.6
20260504171518 80 136 3.0 9.0 0.00 0.00 0.00 40 1014.6
20260504081526 56 37 0.0 0.0 0.00 0.00 0.00 85 1014.6
20260504044550 60 130 0.0 0.0 0.00 0.00 0.00 78 1016.4
20260504043108 62 129 0.0 0.0 0.00 0.00 0.00 77 1016.6
20260504041546 63 129 0.0 0.0 0.00 0.00 0.00 76 1016.7
20260504040046 63 121 0.0 2.0 0.00 0.00 0.00 74 1016.5
20260504034551 64 121 0.0 2.0 0.00 0.00 0.00 71 1016.5
20260504033045 65 121 0.0 3.0 0.00 0.00 0.00 67 1016.6
20260504031551 65 124 0.0 1.0 0.00 0.00 0.00 68 1016.5
20260504030101 65 125 0.0 2.0 0.00 0.00 0.00 65 1016.5
20260504024544 66 141 1.0 3.0 0.00 0.00 0.00 61 1016.3
20260504023044 67 132 0.0 3.0 0.00 0.00 0.00 58 1016.3
20260504021547 67 123 1.0 3.0 0.00 0.00 0.00 56 1016.2
20260504020041 66 129 0.0 2.0 0.00 0.00 0.00 59 1016.0
20260504014541 65 122 1.0 5.0 0.00 0.00 0.00 64 1015.8
20260504013047 64 149 0.0 0.0 0.00 0.00 0.00 58 1015.6
20260504011541 65 149 0.0 0.0 0.00 0.00 0.00 53 1015.5
20260504010050 67 149 0.0 0.0 0.00 0.00 0.00 50 1015.5
20260504004545 69 149 0.0 0.0 0.00 0.00 0.00 46 1015.4
20260504003039 71 150 0.0 0.0 0.00 0.00 0.00 44 1015.2
20260504001541 72 158 0.0 0.0 0.00 0.00 0.00 42 1015.2
20260504000038 73 120 0.0 2.0 0.00 0.00 0.00 41 1015.1
20260503234540 74 130 0.0 2.0 0.00 0.00 0.00 40 1015.2
20260503233035 76 149 0.0 2.0 0.00 0.00 0.00 40 1015.3
20260503231534 78 146 0.0 2.0 0.00 0.00 0.00 36 1015.5
20260503230039 79 145 0.0 3.0 0.00 0.00 0.00 36 1015.5
20260503224532 79 121 0.0 3.0 0.00 0.00 0.00 34 1015.6
20260503223031 79 179 0.0 2.0 0.00 0.00 0.00 34 1015.6
20260503221532 80 122 1.0 4.0 0.00 0.00 0.00 34 1015.8
20260503220034 80 181 0.0 2.0 0.00 0.00 0.00 35 1015.8
20260503214536 79 137 1.0 4.0 0.00 0.00 0.00 35 1016.0
20260503213032 80 188 0.0 4.0 0.00 0.00 0.00 35 1016.3
20260503211523 80 110 1.0 4.0 0.00 0.00 0.00 33 1016.5
20260503210021 80 158 0.0 2.0 0.00 0.00 0.00 33 1016.7